TimeEST,TemperatureF,Dew PointF,Humidity,Sea Level PressureIn,VisibilityMPH,Wind Direction,Wind SpeedMPH,Gust SpeedMPH,PrecipitationIn,Events,Conditions,WindDirDegrees,DateUTC
12:15 AM,40.8,39.0,93,30.05,10.0,Calm,Calm,-,N/A,,Clear,0,2012-12-20 05:15:00
12:35 AM,41.4,39.4,93,30.05,10.0,Calm,Calm,-,N/A,,Clear,0,2012-12-20 05:35:00
12:55 AM,39.9,38.1,93,30.04,10.0,Calm,Calm,-,N/A,,Clear,0,2012-12-20 05:55:00
1:15 AM,39.9,39.6,99,30.03,10.0,Calm,Calm,-,N/A,,Clear,0,2012-12-20 06:15:00
1:35 AM,40.1,39.2,97,30.02,10.0,Calm,Calm,-,N/A,,Clear,0,2012-12-20 06:35:00
1:55 AM,39.7,38.5,95,30.03,10.0,WNW,3.5,-,N/A,,Clear,300,2012-12-20 06:55:00
2:15 AM,40.3,39.2,96,30.03,10.0,Calm,Calm,-,N/A,,Clear,0,2012-12-20 07:15:00
2:35 AM,41.2,39.2,93,30.02,10.0,Calm,Calm,-,N/A,,Clear,0,2012-12-20 07:35:00
2:55 AM,39.2,38.1,96,30.00,10.0,Calm,Calm,-,N/A,,Clear,0,2012-12-20 07:55:00
3:15 AM,43.5,39.2,85,30.01,10.0,Calm,Calm,-,N/A,,Scattered Clouds,0,2012-12-20 08:15:00
3:35 AM,43.0,41.5,95,30.01,10.0,Calm,Calm,-,N/A,,Overcast,0,2012-12-20 08:35:00
3:55 AM,43.5,41.9,94,30.00,10.0,Calm,Calm,-,N/A,,Overcast,0,2012-12-20 08:55:00
4:15 AM,43.7,41.4,91,29.97,10.0,Calm,Calm,-,N/A,,Overcast,0,2012-12-20 09:15:00
4:35 AM,47.3,43.2,86,29.95,10.0,Calm,Calm,-,N/A,,Mostly Cloudy,0,2012-12-20 09:35:00
4:55 AM,51.4,43.9,75,29.95,10.0,SE,3.5,-,N/A,,Mostly Cloudy,130,2012-12-20 09:55:00
5:15 AM,51.4,44.4,77,29.94,10.0,Calm,Calm,-,N/A,,Scattered Clouds,0,2012-12-20 10:15:00
5:35 AM,53.1,44.1,71,29.92,10.0,SE,6.9,-,N/A,,Scattered Clouds,140,2012-12-20 10:35:00
5:55 AM,55.6,43.2,63,29.91,10.0,South,13.8,21.9,N/A,,Mostly Cloudy,170,2012-12-20 10:55:00
6:15 AM,56.7,41.9,58,29.90,10.0,SSE,13.8,24.2,N/A,,Mostly Cloudy,160,2012-12-20 11:15:00
6:35 AM,57.2,41.7,56,29.91,10.0,South,16.1,21.9,N/A,,Overcast,190,2012-12-20 11:35:00
6:55 AM,56.3,42.6,60,29.89,10.0,SSE,10.4,-,N/A,,Overcast,160,2012-12-20 11:55:00
7:15 AM,57.6,41.4,55,29.89,10.0,South,12.7,24.2,N/A,,Overcast,170,2012-12-20 12:15:00
7:35 AM,56.1,43.7,63,29.90,10.0,South,16.1,21.9,N/A,Rain,Light Rain,190,2012-12-20 12:35:00
7:55 AM,54.1,45.7,73,29.89,10.0,South,10.4,-,N/A,,Overcast,170,2012-12-20 12:55:00
8:15 AM,54.0,46.6,76,29.89,10.0,South,12.7,17.3,N/A,Rain,Rain,180,2012-12-20 13:15:00
8:35 AM,53.2,48.2,83,29.89,10.0,South,8.1,18.4,N/A,Rain,Light Rain,190,2012-12-20 13:35:00
8:55 AM,53.6,49.5,86,29.88,10.0,South,10.4,18.4,N/A,Rain,Light Rain,170,2012-12-20 13:55:00
9:15 AM,53.8,50.9,90,29.87,10.0,South,13.8,17.3,N/A,,Overcast,180,2012-12-20 14:15:00
9:35 AM,54.7,51.8,90,29.87,10.0,South,15.0,20.7,N/A,,Overcast,180,2012-12-20 14:35:00
9:55 AM,55.9,52.9,89,29.86,10.0,South,12.7,18.4,N/A,,Overcast,190,2012-12-20 14:55:00
10:15 AM,57.2,54.3,90,29.85,10.0,SSW,11.5,17.3,N/A,,Overcast,200,2012-12-20 15:15:00
10:35 AM,58.1,55.4,91,29.84,10.0,South,15.0,25.3,N/A,Rain,Light Rain,190,2012-12-20 15:35:00
10:55 AM,57.7,56.1,94,29.82,7.0,South,11.5,18.4,N/A,Rain,Light Rain,190,2012-12-20 15:55:00
11:15 AM,57.9,56.7,96,29.81,7.0,South,13.8,18.4,N/A,Rain,Light Rain,170,2012-12-20 16:15:00
11:35 AM,58.3,57.4,97,29.80,7.0,South,13.8,18.4,N/A,Rain,Rain,190,2012-12-20 16:35:00
11:55 AM,58.8,58.1,97,29.77,3.0,South,11.5,17.3,N/A,Rain,Heavy Rain,180,2012-12-20 16:55:00
12:15 PM,59.2,58.6,98,29.77,4.0,WSW,8.1,-,N/A,Rain,Light Rain,240,2012-12-20 17:15:00
12:35 PM,61.2,59.9,96,29.73,10.0,South,13.8,19.6,N/A,Rain,Light Rain,190,2012-12-20 17:35:00
12:55 PM,61.3,60.1,96,29.72,10.0,SSW,8.1,19.6,N/A,,Overcast,200,2012-12-20 17:55:00
1:15 PM,61.7,60.8,97,29.69,7.0,South,9.2,-,N/A,Rain,Rain,190,2012-12-20 18:15:00
1:35 PM,57.7,54.0,87,29.74,4.0,WNW,21.9,31.1,N/A,Rain,Light Rain,290,2012-12-20 18:35:00
1:55 PM,55.2,52.3,90,29.74,5.0,West,11.5,25.3,N/A,Rain,Light Rain,270,2012-12-20 18:55:00
2:15 PM,54.5,51.6,90,29.73,10.0,West,4.6,-,N/A,,Overcast,260,2012-12-20 19:15:00
2:35 PM,54.5,52.0,91,29.73,10.0,West,3.5,-,N/A,,Overcast,260,2012-12-20 19:35:00
2:55 PM,55.4,52.0,88,29.72,10.0,WSW,6.9,-,N/A,,Overcast,240,2012-12-20 19:55:00
3:15 PM,55.0,49.1,80,29.73,10.0,WSW,5.8,-,N/A,,Overcast,240,2012-12-20 20:15:00
3:35 PM,55.6,48.0,76,29.74,10.0,West,8.1,-,N/A,,Mostly Cloudy,260,2012-12-20 20:35:00
3:55 PM,54.9,46.9,75,29.75,10.0,West,10.4,-,N/A,,Scattered Clouds,270,2012-12-20 20:55:00
4:15 PM,54.7,48.2,79,29.76,10.0,West,8.1,-,N/A,,Clear,270,2012-12-20 21:15:00
4:35 PM,55.6,47.7,75,29.77,10.0,West,10.4,16.1,N/A,,Clear,270,2012-12-20 21:35:00
4:55 PM,56.1,46.2,69,29.78,10.0,West,13.8,23.0,N/A,,Clear,280,2012-12-20 21:55:00
5:15 PM,55.2,45.0,68,29.78,10.0,West,10.4,13.8,N/A,,Clear,270,2012-12-20 22:15:00
5:35 PM,53.8,44.6,71,29.79,10.0,West,10.4,-,N/A,,Clear,280,2012-12-20 22:35:00
5:55 PM,53.4,43.9,70,29.81,10.0,WNW,10.4,-,N/A,,Clear,290,2012-12-20 22:55:00
6:15 PM,52.3,42.6,69,29.83,10.0,WNW,17.3,24.2,N/A,,Clear,300,2012-12-20 23:15:00
6:35 PM,52.0,39.2,62,29.85,10.0,WNW,18.4,28.8,N/A,,Clear,300,2012-12-20 23:35:00
6:55 PM,50.0,35.8,58,29.87,10.0,WNW,21.9,33.4,N/A,,Clear,300,2012-12-20 23:55:00
7:15 PM,49.1,35.2,59,29.89,10.0,WNW,16.1,24.2,N/A,,Clear,300,2012-12-21 00:15:00
7:35 PM,48.2,35.1,60,29.90,10.0,WNW,18.4,21.9,N/A,,Scattered Clouds,290,2012-12-21 00:35:00
7:55 PM,46.9,34.3,62,29.91,10.0,WNW,11.5,-,N/A,,Scattered Clouds,300,2012-12-21 00:55:00
8:15 PM,46.4,33.4,61,29.92,10.0,WNW,19.6,24.2,N/A,,Scattered Clouds,300,2012-12-21 01:15:00
8:35 PM,45.5,32.9,61,29.93,10.0,West,13.8,19.6,N/A,,Clear,280,2012-12-21 01:35:00
8:55 PM,45.0,32.2,61,29.94,10.0,WNW,15.0,25.3,N/A,,Clear,300,2012-12-21 01:55:00
9:15 PM,44.8,31.6,60,29.95,10.0,WNW,16.1,23.0,N/A,,Clear,300,2012-12-21 02:15:00
9:35 PM,45.0,31.3,59,29.96,10.0,WNW,13.8,25.3,N/A,,Mostly Cloudy,290,2012-12-21 02:35:00
9:55 PM,44.4,30.6,58,29.97,10.0,WNW,15.0,23.0,N/A,,Mostly Cloudy,300,2012-12-21 02:55:00
10:15 PM,44.2,31.5,61,29.97,10.0,WNW,13.8,18.4,N/A,,Overcast,290,2012-12-21 03:15:00
10:35 PM,43.3,30.2,60,29.97,10.0,WNW,18.4,23.0,N/A,,Mostly Cloudy,300,2012-12-21 03:35:00
10:55 PM,42.8,30.2,61,29.98,10.0,West,11.5,18.4,N/A,,Mostly Cloudy,280,2012-12-21 03:55:00
11:15 PM,42.8,30.2,61,29.99,10.0,West,12.7,18.4,N/A,,Mostly Cloudy,280,2012-12-21 04:15:00
11:35 PM,43.0,30.4,61,29.99,10.0,WNW,15.0,20.7,N/A,,Overcast,290,2012-12-21 04:35:00
11:55 PM,42.8,29.8,60,29.99,10.0,WNW,16.1,25.3,N/A,,Overcast,290,2012-12-21 04:55:00